Location: LDNL
(36.4545°S, 141.6685°E)
Time: 10:53:47
(UTC+10:00)

Tiros 1 despin weight - Pass Details

Date: 12 August 2022
Orbit: 590 x 639 km, 48.2° (Epoch: 23 September)

Event Time Altitude Azimuth Distance (km) Brightness Sun altitude
Rises 02:50:45 0° 254° (WSW) 2,935 - -53.7°
Reaches altitude 10° 02:53:36 10° 237° (WSW) 2,036 - -53.2°
Maximum altitude 02:57:08 21° 188° (S) 1,466 - -52.5°
Drops below altitude 10° 03:00:42 10° 139° (SE) 2,052 - -51.9°
Sets 03:03:34 0° 123° (ESE) 2,964 - -51.4°
